LB9GJ Weather Reports


time (UTC)temp
F
wind
direction
speed
knots
gust
knots
rain 1hr
in
rain 24hr
in
rain mn
in
humidity
%
barometer
mb
20260505183002 29 286 6.1 0.0 0.00 0.00 0.00 59 1010.6
20260505181502 31 286 6.1 0.0 0.00 0.00 0.00 59 1010.6
20260505180002 30 286 0.9 0.0 0.00 0.00 0.00 59 1010.6
20260505174501 31 256 7.0 0.0 0.00 0.00 0.00 59 1010.6
20260505173002 33 256 5.2 0.0 0.00 0.00 0.00 59 1010.6
20260505171502 32 256 1.7 0.0 0.00 0.00 0.00 59 1010.6
20260505170002 34 256 5.2 0.0 0.00 0.00 0.00 59 1010.6
20260505164501 32 256 6.1 0.0 0.00 0.00 0.00 59 1010.6
20260505163002 33 266 3.5 0.0 0.00 0.00 0.00 59 1010.6
20260505161501 36 266 4.3 0.0 0.00 0.00 0.00 59 1010.6
20260505153002 33 277 7.8 0.0 0.00 0.00 0.00 59 1010.6
20260505151501 33 277 9.6 0.0 0.00 0.00 0.00 59 1010.6
20260505124501 45 296 7.0 0.0 0.00 0.00 0.00 59 1010.6
20260505123002 49 296 7.8 0.0 0.00 0.00 0.00 59 1010.6
20260505121502 49 297 7.8 0.0 0.00 0.00 0.00 59 1010.6
20260505120002 49 297 6.1 0.0 0.00 0.00 0.00 59 1010.6
20260505114501 48 297 7.0 0.0 0.00 0.00 0.00 59 1010.6
20260505113002 47 297 7.0 0.0 0.00 0.00 0.00 59 1010.6
20260505111501 52 297 7.0 0.0 0.00 0.00 0.00 59 1010.6
20260505101501 48 297 7.0 0.0 0.00 0.00 0.00 59 1010.6
20260505100002 49 297 6.1 0.0 0.00 0.00 0.00 59 1010.6
20260505094501 47 297 7.8 0.0 0.00 0.00 0.00 59 1010.6
20260505093002 50 297 7.0 0.0 0.00 0.00 0.00 59 1010.6
20260505091501 46 297 6.1 0.0 0.00 0.00 0.00 59 1010.6
20260505090002 46 297 7.0 0.0 0.00 0.00 0.00 59 1010.6
20260505084502 45 297 7.0 0.0 0.00 0.00 0.00 59 1010.6
20260505083003 44 296 7.8 0.0 0.00 0.00 0.00 59 1010.6
20260505081501 41 296 7.8 0.0 0.00 0.00 0.00 59 1010.6
20260505080002 43 296 6.1 0.0 0.00 0.00 0.00 59 1010.6
20260505074502 40 296 7.0 0.0 0.00 0.00 0.00 59 1010.6
20260505073002 41 296 7.0 0.0 0.00 0.00 0.00 59 1010.6
20260505071502 37 296 7.0 0.0 0.00 0.00 0.00 59 1010.6
20260505070002 37 296 7.8 0.0 0.00 0.00 0.00 59 1010.6
20260505064501 36 296 7.0 0.0 0.00 0.00 0.00 59 1010.6
20260505063002 35 290 7.0 0.0 0.00 0.00 0.00 59 1010.6
20260505061502 33 290 7.0 0.0 0.00 0.00 0.00 59 1010.6
20260505060002 32 292 7.0 0.0 0.00 0.00 0.00 59 1010.6
20260505054502 30 292 6.1 0.0 0.00 0.00 0.00 59 1010.6
20260505053002 30 292 6.1 0.0 0.00 0.00 0.00 59 1010.6
20260505051502 28 292 6.1 0.0 0.00 0.00 0.00 59 1010.6
20260505041502 21 296 2.6 0.0 0.00 0.00 0.00 59 1010.6
20260505040002 20 296 1.7 0.0 0.00 0.00 0.00 59 1010.6
20260505034502 19 296 3.5 0.0 0.00 0.00 0.00 59 1010.6
20260505033002 20 296 0.9 0.0 0.00 0.00 0.00 59 1010.6
20260505031502 20 296 0.9 0.0 0.00 0.00 0.00 59 1010.6
20260505030002 20 297 0.0 0.0 0.00 0.00 0.00 59 1010.6
20260505024502 22 297 7.0 0.0 0.00 0.00 0.00 59 1010.6
20260505023002 22 297 7.0 0.0 0.00 0.00 0.00 59 1010.6
20260505021501 22 301 7.0 0.0 0.00 0.00 0.00 59 1010.6
20260505020002 23 301 7.0 0.0 0.00 0.00 0.00 59 1010.6
20260505014502 22 301 6.1 0.0 0.00 0.00 0.00 59 1010.6
20260505013002 22 301 7.0 0.0 0.00 0.00 0.00 59 1010.6
20260505011501 22 301 6.1 0.0 0.00 0.00 0.00 59 1010.6
20260505010002 23 301 6.1 0.0 0.00 0.00 0.00 59 1010.6
20260505004501 23 301 6.1 0.0 0.00 0.00 0.00 59 1010.6
20260505003002 23 300 6.1 0.0 0.00 0.00 0.00 59 1010.6
20260505001502 22 300 6.1 0.0 0.00 0.00 0.00 59 1010.6
20260505000002 23 300 6.1 0.0 0.00 0.00 0.00 59 1010.6
20260504234501 23 297 7.0 0.0 0.00 0.00 0.00 59 1010.6
20260504233002 22 297 7.0 0.0 0.00 0.00 0.00 59 1010.6
20260504231501 23 297 7.0 0.0 0.00 0.00 0.00 59 1010.6
20260504230002 23 297 6.1 0.0 0.00 0.00 0.00 59 1010.6
20260504224502 23 297 7.0 0.0 0.00 0.00 0.00 59 1010.6
20260504223002 24 300 6.1 0.0 0.00 0.00 0.00 59 1010.6
20260504221501 24 300 7.0 0.0 0.00 0.00 0.00 59 1010.6
20260504220002 24 306 6.1 0.0 0.00 0.00 0.00 59 1010.6
20260504214501 25 306 6.1 0.0 0.00 0.00 0.00 59 1010.6
20260504213002 25 306 7.0 0.0 0.00 0.00 0.00 59 1010.6
20260504211502 25 306 7.8 0.0 0.00 0.00 0.00 59 1010.6
20260504210002 26 306 7.0 0.0 0.00 0.00 0.00 59 1010.6
20260504204501 27 302 6.1 0.0 0.00 0.00 0.00 59 1010.6
20260504203003 26 302 4.3 0.0 0.00 0.00 0.00 59 1010.6
20260504201501 28 293 7.0 0.0 0.00 0.00 0.00 59 1010.6
20260504200002 28 293 5.2 0.0 0.00 0.00 0.00 59 1010.6
20260504194502 29 293 6.1 0.0 0.00 0.00 0.00 59 1010.6
20260504193002 29 293 4.3 0.0 0.00 0.00 0.00 59 1010.6
20260504191501 30 293 7.0 0.0 0.00 0.00 0.00 59 1010.6
20260504190002 30 278 4.3 0.0 0.00 0.00 0.00 59 1010.6
20260504184502 31 278 5.2 0.0 0.00 0.00 0.00 59 1010.6